User: anonymous   Login
Location: Unspecified
(0.0000°N, 0.0000°E)
Time: 01:43:13
(UTC+00:00)
Language:

LAPAN-TUBSAT - Orbit

View from above orbital plane
View from above orbital plane
View from above satellite
View from above satellite

Ground track
Ground track

The orbit data is extracted from the following two-line orbital elements,

1 29709U 07001A   18352.88203560  .00000032  00000-0  10467-4 0  9993
2 29709  97.7814 314.8265 0014305  93.9297 266.3571 14.82153570645401
Epoch (UTC): 18 December 2018 21:10:07
Eccentricity: 0.0014305
inclination: 97.7814°
perigee height: 612 km
apogee height: 632 km
right ascension of ascending node: 314.8265°
argument of perigee: 93.9297°
revolutions per day: 14.82153570
mean anomaly at epoch: 266.3571°
orbit number at epoch: 64540

The dashed part of the orbit path shows where the satellite is in the earth's shadow,  

DLR